| time (UTC) | temp F | wind direction | speed MPH | gust MPH | rain 1hr in | rain 24hr in | rain mn in | humidity % | barometer mb |
| 20260505001019 | 66 | 192 | 4.0 | 8.0 | 0.00 | 0.00 | 0.00 | 43 | 1007.6 |
| 20260505000519 | 66 | 217 | 1.0 | 8.0 | 0.00 | 0.00 | 0.00 | 43 | 1007.5 |
| 20260505000029 | 67 | 171 | 2.0 | 10.0 | 0.00 | 0.00 | 0.00 | 44 | 1007.3 |
| 20260504235518 | 67 | 197 | 3.0 | 8.0 | 0.00 | 0.00 | 0.00 | 42 | 1007.3 |
| 20260504235019 | 67 | 225 | 3.0 | 12.0 | 0.00 | 0.00 | 0.00 | 43 | 1007.2 |
| 20260504234520 | 68 | 179 | 3.0 | 12.0 | 0.00 | 0.00 | 0.00 | 41 | 1007.2 |
| 20260504234020 | 68 | 195 | 3.0 | 10.0 | 0.00 | 0.00 | 0.00 | 41 | 1007.2 |
| 20260504233518 | 68 | 198 | 3.0 | 10.0 | 0.00 | 0.00 | 0.00 | 41 | 1007.1 |
| 20260504233021 | 68 | 205 | 5.0 | 10.0 | 0.00 | 0.00 | 0.00 | 41 | 1007.1 |
| 20260504232517 | 68 | 190 | 5.0 | 12.0 | 0.00 | 0.00 | 0.00 | 41 | 1007.1 |
| 20260504232017 | 68 | 207 | 4.0 | 12.0 | 0.00 | 0.00 | 0.00 | 41 | 1007.0 |
| 20260504231526 | 68 | 232 | 4.0 | 10.0 | 0.00 | 0.00 | 0.00 | 40 | 1006.9 |
| 20260504231019 | 69 | 154 | 4.0 | 11.0 | 0.00 | 0.00 | 0.00 | 40 | 1006.9 |
| 20260504230518 | 69 | 200 | 6.0 | 12.0 | 0.00 | 0.00 | 0.00 | 40 | 1006.8 |
| 20260504230019 | 70 | 203 | 6.0 | 12.0 | 0.00 | 0.00 | 0.00 | 40 | 1006.6 |
| 20260504225516 | 70 | 189 | 4.0 | 12.0 | 0.00 | 0.00 | 0.00 | 39 | 1006.6 |
| 20260504225016 | 71 | 198 | 6.0 | 13.0 | 0.00 | 0.00 | 0.00 | 38 | 1006.6 |
| 20260504224520 | 71 | 207 | 6.0 | 13.0 | 0.00 | 0.00 | 0.00 | 38 | 1006.5 |
| 20260504224021 | 71 | 186 | 5.0 | 17.0 | 0.00 | 0.00 | 0.00 | 39 | 1006.6 |
| 20260504223519 | 71 | 196 | 9.0 | 17.0 | 0.00 | 0.00 | 0.00 | 37 | 1006.5 |
| 20260504223015 | 71 | 173 | 9.0 | 18.0 | 0.00 | 0.00 | 0.00 | 37 | 1006.5 |
| 20260504222516 | 71 | 209 | 5.0 | 14.0 | 0.00 | 0.00 | 0.00 | 37 | 1006.4 |
| 20260504222014 | 71 | 181 | 6.0 | 20.0 | 0.00 | 0.00 | 0.00 | 37 | 1006.5 |
| 20260504221514 | 71 | 234 | 7.0 | 20.0 | 0.00 | 0.00 | 0.00 | 36 | 1006.6 |
| 20260504221013 | 72 | 202 | 6.0 | 17.0 | 0.00 | 0.00 | 0.00 | 35 | 1006.6 |
| 20260504220514 | 72 | 170 | 7.0 | 12.0 | 0.00 | 0.00 | 0.00 | 36 | 1006.6 |
| 20260504220018 | 73 | 192 | 4.0 | 10.0 | 0.00 | 0.00 | 0.00 | 37 | 1006.6 |
| 20260504215513 | 73 | 172 | 3.0 | 9.0 | 0.00 | 0.00 | 0.00 | 38 | 1006.6 |
| 20260504215012 | 73 | 187 | 5.0 | 16.0 | 0.00 | 0.00 | 0.00 | 34 | 1006.7 |
| 20260504214512 | 73 | 182 | 4.0 | 16.0 | 0.00 | 0.00 | 0.00 | 34 | 1006.7 |
| 20260504214011 | 73 | 179 | 6.0 | 12.0 | 0.00 | 0.00 | 0.00 | 35 | 1006.7 |
| 20260504213511 | 73 | 202 | 5.0 | 16.0 | 0.00 | 0.00 | 0.00 | 35 | 1006.7 |
| 20260504213011 | 73 | 190 | 5.0 | 16.0 | 0.00 | 0.00 | 0.00 | 35 | 1006.7 |
| 20260504212509 | 72 | 164 | 8.0 | 13.0 | 0.00 | 0.00 | 0.00 | 34 | 1006.7 |
| 20260504212011 | 72 | 210 | 4.0 | 16.0 | 0.00 | 0.00 | 0.00 | 36 | 1007.0 |
| 20260504211512 | 73 | 159 | 4.0 | 18.0 | 0.00 | 0.00 | 0.00 | 37 | 1007.0 |
| 20260504211007 | 72 | 161 | 10.0 | 18.0 | 0.00 | 0.00 | 0.00 | 34 | 1006.8 |
| 20260504210507 | 71 | 148 | 3.0 | 15.0 | 0.00 | 0.00 | 0.00 | 39 | 1007.0 |
| 20260504210005 | 72 | 216 | 3.0 | 12.0 | 0.00 | 0.00 | 0.00 | 36 | 1007.0 |
| 20260504205505 | 71 | 177 | 5.0 | 12.0 | 0.00 | 0.00 | 0.00 | 38 | 1007.1 |
| 20260504205007 | 71 | 167 | 4.0 | 13.0 | 0.00 | 0.00 | 0.00 | 37 | 1007.0 |
| 20260504204502 | 71 | 235 | 7.0 | 17.0 | 0.00 | 0.00 | 0.00 | 35 | 1007.0 |
| 20260504204001 | 71 | 244 | 5.0 | 12.0 | 0.00 | 0.00 | 0.00 | 35 | 1007.0 |
| 20260504203600 | 71 | 179 | 6.0 | 12.0 | 0.00 | 0.00 | 0.00 | 35 | 1007.0 |
| 20260504203103 | 71 | 174 | 3.0 | 15.0 | 0.00 | 0.00 | 0.00 | 39 | 1007.0 |
| 20260504202557 | 73 | 223 | 6.0 | 13.0 | 0.00 | 0.00 | 0.00 | 33 | 1007.1 |
| 20260504202059 | 73 | 150 | 6.0 | 13.0 | 0.00 | 0.00 | 0.00 | 33 | 1007.2 |
| 20260504201555 | 74 | 131 | 3.0 | 13.0 | 0.00 | 0.00 | 0.00 | 36 | 1007.1 |
| 20260504201053 | 72 | 182 | 5.0 | 13.0 | 0.00 | 0.00 | 0.00 | 37 | 1007.2 |
| 20260504200553 | 70 | 211 | 5.0 | 13.0 | 0.00 | 0.00 | 0.00 | 38 | 1007.3 |
| 20260504200057 | 70 | 202 | 1.0 | 9.0 | 0.00 | 0.00 | 0.00 | 41 | 1007.5 |
| 20260504195551 | 71 | 158 | 4.0 | 16.0 | 0.00 | 0.00 | 0.00 | 37 | 1007.6 |
| 20260504195051 | 72 | 119 | 4.0 | 16.0 | 0.00 | 0.00 | 0.00 | 41 | 1007.6 |
| 20260504194605 | 71 | 186 | 5.0 | 16.0 | 0.00 | 0.00 | 0.00 | 36 | 1007.6 |
| 20260504194050 | 71 | 150 | 5.0 | 14.0 | 0.00 | 0.00 | 0.00 | 36 | 1007.7 |
| 20260504193550 | 72 | 171 | 5.0 | 12.0 | 0.00 | 0.00 | 0.00 | 37 | 1007.7 |
| 20260504193051 | 72 | 173 | 5.0 | 11.0 | 0.00 | 0.00 | 0.00 | 34 | 1007.7 |
| 20260504192548 | 72 | 204 | 6.0 | 10.0 | 0.00 | 0.00 | 0.00 | 37 | 1007.8 |
| 20260504192048 | 71 | 171 | 4.0 | 15.0 | 0.00 | 0.00 | 0.00 | 35 | 1007.8 |
| 20260504191550 | 71 | 171 | 4.0 | 15.0 | 0.00 | 0.00 | 0.00 | 39 | 1007.8 |
| 20260504191048 | 69 | 169 | 7.0 | 14.0 | 0.00 | 0.00 | 0.00 | 36 | 1007.9 |
| 20260504190546 | 69 | 165 | 7.0 | 14.0 | 0.00 | 0.00 | 0.00 | 36 | 1008.0 |
| 20260504185544 | 70 | 168 | 5.0 | 15.0 | 0.00 | 0.00 | 0.00 | 37 | 1008.1 |
| 20260504185044 | 71 | 160 | 5.0 | 20.0 | 0.00 | 0.00 | 0.00 | 38 | 1008.0 |
| 20260504184552 | 73 | 219 | 7.0 | 15.0 | 0.00 | 0.00 | 0.00 | 34 | 1008.0 |
| 20260504184043 | 74 | 132 | 5.0 | 13.0 | 0.00 | 0.00 | 0.00 | 33 | 1008.0 |
| 20260504183541 | 72 | 211 | 7.0 | 18.0 | 0.00 | 0.00 | 0.00 | 36 | 1007.9 |
| 20260504183038 | 71 | 186 | 8.0 | 18.0 | 0.00 | 0.00 | 0.00 | 37 | 1008.0 |
| 20260504182537 | 71 | 258 | 7.0 | 16.0 | 0.00 | 0.00 | 0.00 | 37 | 1008.2 |
| 20260504182037 | 69 | 228 | 2.0 | 14.0 | 0.00 | 0.00 | 0.00 | 43 | 1008.0 |
| 20260504181543 | 69 | 151 | 7.0 | 14.0 | 0.00 | 0.00 | 0.00 | 35 | 1008.2 |
| 20260504181035 | 69 | 173 | 6.0 | 22.0 | 0.00 | 0.00 | 0.00 | 38 | 1008.2 |
| 20260504180535 | 70 | 167 | 11.0 | 22.0 | 0.00 | 0.00 | 0.00 | 36 | 1008.3 |
| 20260504180052 | 70 | 220 | 7.0 | 14.0 | 0.00 | 0.00 | 0.00 | 38 | 1008.6 |
| 20260504175532 | 70 | 240 | 6.0 | 24.0 | 0.00 | 0.00 | 0.00 | 37 | 1008.6 |
| 20260504175036 | 69 | 222 | 10.0 | 24.0 | 0.00 | 0.00 | 0.00 | 38 | 1008.6 |
| 20260504174532 | 70 | 205 | 7.0 | 18.0 | 0.00 | 0.00 | 0.00 | 36 | 1008.6 |
| 20260504174131 | 70 | 165 | 6.0 | 18.0 | 0.00 | 0.00 | 0.00 | 38 | 1008.8 |
| 20260504173530 | 70 | 210 | 7.0 | 18.0 | 0.00 | 0.00 | 0.00 | 36 | 1008.7 |
| 20260504173032 | 70 | 209 | 7.0 | 21.0 | 0.00 | 0.00 | 0.00 | 38 | 1008.8 |
| 20260504172527 | 70 | 296 | 8.0 | 21.0 | 0.00 | 0.00 | 0.00 | 37 | 1008.9 |
| 20260504172027 | 70 | 276 | 7.0 | 18.0 | 0.00 | 0.00 | 0.00 | 38 | 1009.0 |
| 20260504171528 | 69 | 223 | 8.0 | 18.0 | 0.00 | 0.00 | 0.00 | 37 | 1009.0 |
| 20260504171026 | 70 | 307 | 7.0 | 14.0 | 0.00 | 0.00 | 0.00 | 35 | 1009.0 |
| 20260504170524 | 69 | 272 | 8.0 | 18.0 | 0.00 | 0.00 | 0.00 | 37 | 1009.0 |
| 20260504151011 | 66 | 301 | 8.0 | 20.0 | 0.00 | 0.00 | 0.00 | 41 | 1010.3 |
| 20260504150511 | 65 | 193 | 7.0 | 20.0 | 0.00 | 0.00 | 0.00 | 40 | 1010.3 |
| 20260504141058 | 59 | 191 | 3.0 | 9.0 | 0.00 | 0.00 | 0.00 | 51 | 1011.0 |
| 20260504140558 | 59 | 175 | 4.0 | 12.0 | 0.00 | 0.00 | 0.00 | 49 | 1011.1 |
| 20260504140120 | 58 | 117 | 3.0 | 12.0 | 0.00 | 0.00 | 0.00 | 52 | 1011.2 |
| 20260504130546 | 54 | 184 | 3.0 | 9.0 | 0.00 | 0.00 | 0.00 | 59 | 1011.8 |
| 20260504130148 | 53 | 179 | 4.0 | 9.0 | 0.00 | 0.00 | 0.00 | 56 | 1011.8 |
| 20260504110525 | 44 | 207 | 3.0 | 9.0 | 0.00 | 0.00 | 0.00 | 70 | 1012.2 |
| 20260504100518 | 41 | 360 | 5.0 | 12.0 | 0.00 | 0.00 | 0.00 | 72 | 1012.1 |
| 20260504082008 | 40 | 360 | 4.0 | 9.0 | 0.00 | 0.00 | 0.00 | 77 | 1011.5 |
| 20260504081506 | 40 | 360 | 2.0 | 6.0 | 0.00 | 0.00 | 0.00 | 77 | 1011.6 |
| 20260504081005 | 40 | 360 | 2.0 | 6.0 | 0.00 | 0.00 | 0.00 | 77 | 1011.6 |
| 20260504080507 | 40 | 193 | 2.0 | 6.0 | 0.00 | 0.00 | 0.00 | 77 | 1011.6 |
| 20260504050539 | 43 | 360 | 2.0 | 5.0 | 0.00 | 0.00 | 0.00 | 71 | 1011.5 |
| 20260504050104 | 43 | 360 | 3.0 | 5.0 | 0.00 | 0.00 | 0.00 | 71 | 1011.6 |
| 20260504045537 | 43 | 360 | 1.0 | 4.0 | 0.00 | 0.00 | 0.00 | 70 | 1011.6 |
| 20260504045040 | 43 | 360 | 1.0 | 4.0 | 0.00 | 0.00 | 0.00 | 68 | 1011.5 |
| 20260504044536 | 44 | 360 | 1.0 | 5.0 | 0.00 | 0.00 | 0.00 | 68 | 1011.5 |
| 20260504044036 | 44 | 360 | 1.0 | 5.0 | 0.00 | 0.00 | 0.00 | 68 | 1011.6 |
| 20260504043535 | 44 | 360 | 2.0 | 4.0 | 0.00 | 0.00 | 0.00 | 68 | 1011.6 |
| 20260504043034 | 44 | 360 | 1.0 | 5.0 | 0.00 | 0.00 | 0.00 | 67 | 1011.7 |
| 20260504042533 | 44 | 360 | 2.0 | 5.0 | 0.00 | 0.00 | 0.00 | 67 | 1011.7 |
| 20260504042031 | 45 | 360 | 1.0 | 5.0 | 0.00 | 0.00 | 0.00 | 67 | 1011.7 |
| 20260504041534 | 45 | 360 | 2.0 | 5.0 | 0.00 | 0.00 | 0.00 | 65 | 1011.7 |
| 20260504041029 | 45 | 360 | 2.0 | 4.0 | 0.00 | 0.00 | 0.00 | 65 | 1011.7 |
| 20260504040528 | 46 | 360 | 1.0 | 5.0 | 0.00 | 0.00 | 0.00 | 64 | 1011.6 |
| 20260504040031 | 46 | 360 | 1.0 | 5.0 | 0.00 | 0.00 | 0.00 | 63 | 1011.5 |
| 20260504035529 | 46 | 360 | 2.0 | 5.0 | 0.00 | 0.00 | 0.00 | 63 | 1011.6 |
| 20260504035029 | 46 | 360 | 2.0 | 4.0 | 0.00 | 0.00 | 0.00 | 63 | 1011.4 |
| 20260504034539 | 46 | 360 | 2.0 | 6.0 | 0.00 | 0.00 | 0.00 | 63 | 1011.5 |
| 20260504034030 | 46 | 360 | 2.0 | 6.0 | 0.00 | 0.00 | 0.00 | 62 | 1011.4 |
| 20260504033534 | 45 | 360 | 2.0 | 5.0 | 0.00 | 0.00 | 0.00 | 63 | 1011.4 |
| 20260504033030 | 45 | 360 | 2.0 | 4.0 | 0.00 | 0.00 | 0.00 | 63 | 1011.4 |
| 20260504032525 | 45 | 360 | 2.0 | 5.0 | 0.00 | 0.00 | 0.00 | 64 | 1011.4 |
| 20260504032025 | 44 | 360 | 2.0 | 5.0 | 0.00 | 0.00 | 0.00 | 65 | 1011.5 |
| 20260504031526 | 44 | 360 | 1.0 | 2.0 | 0.00 | 0.00 | 0.00 | 65 | 1011.4 |
| 20260504031026 | 44 | 360 | 0.0 | 2.0 | 0.00 | 0.00 | 0.00 | 63 | 1011.4 |
| 20260504030526 | 44 | 360 | 0.0 | 2.0 | 0.00 | 0.00 | 0.00 | 63 | 1011.5 |
| 20260504030036 | 45 | 360 | 0.0 | 3.0 | 0.00 | 0.00 | 0.00 | 61 | 1011.3 |
| 20260504025530 | 45 | 360 | 1.0 | 3.0 | 0.00 | 0.00 | 0.00 | 62 | 1011.4 |
| 20260504025025 | 44 | 360 | 1.0 | 3.0 | 0.00 | 0.00 | 0.00 | 65 | 1011.4 |
| 20260504024525 | 44 | 360 | 0.0 | 2.0 | 0.00 | 0.00 | 0.00 | 65 | 1011.4 |
| 20260504024026 | 45 | 360 | 0.0 | 2.0 | 0.00 | 0.00 | 0.00 | 63 | 1011.3 |
| 20260504023524 | 45 | 360 | 0.0 | 3.0 | 0.00 | 0.00 | 0.00 | 61 | 1011.3 |
| 20260504023024 | 45 | 360 | 1.0 | 3.0 | 0.00 | 0.00 | 0.00 | 61 | 1011.3 |
| 20260504022523 | 46 | 360 | 0.0 | 0.0 | 0.00 | 0.00 | 0.00 | 59 | 1011.3 |
| 20260504022023 | 46 | 360 | 0.0 | 0.0 | 0.00 | 0.00 | 0.00 | 59 | 1011.3 |
| 20260504021523 | 46 | 360 | 0.0 | 0.0 | 0.00 | 0.00 | 0.00 | 58 | 1011.3 |
| 20260504021023 | 46 | 360 | 0.0 | 0.0 | 0.00 | 0.00 | 0.00 | 58 | 1011.3 |
| 20260504020523 | 47 | 360 | 0.0 | 0.0 | 0.00 | 0.00 | 0.00 | 57 | 1011.3 |
| 20260504020023 | 47 | 360 | 0.0 | 0.0 | 0.00 | 0.00 | 0.00 | 56 | 1011.3 |
| 20260504015523 | 48 | 312 | 0.0 | 0.0 | 0.00 | 0.00 | 0.00 | 57 | 1011.3 |
| 20260504015023 | 48 | 312 | 0.0 | 1.0 | 0.00 | 0.00 | 0.00 | 56 | 1011.3 |
| 20260504014524 | 48 | 312 | 0.0 | 2.0 | 0.00 | 0.00 | 0.00 | 54 | 1011.3 |
| 20260504014022 | 48 | 312 | 0.0 | 2.0 | 0.00 | 0.00 | 0.00 | 54 | 1011.3 |
| 20260504013522 | 48 | 312 | 0.0 | 2.0 | 0.00 | 0.00 | 0.00 | 53 | 1011.3 |
| 20260504013023 | 48 | 312 | 0.0 | 1.0 | 0.00 | 0.00 | 0.00 | 53 | 1011.2 |
| 20260504012523 | 48 | 312 | 0.0 | 1.0 | 0.00 | 0.00 | 0.00 | 52 | 1011.2 |
| 20260504012022 | 48 | 312 | 0.0 | 1.0 | 0.00 | 0.00 | 0.00 | 53 | 1011.2 |
| 20260504011523 | 49 | 312 | 0.0 | 2.0 | 0.00 | 0.00 | 0.00 | 53 | 1011.2 |
| 20260504011021 | 49 | 312 | 0.0 | 3.0 | 0.00 | 0.00 | 0.00 | 52 | 1011.1 |
| 20260504010523 | 49 | 360 | 1.0 | 3.0 | 0.00 | 0.00 | 0.00 | 52 | 1011.1 |
| 20260504010021 | 49 | 310 | 1.0 | 2.0 | 0.00 | 0.00 | 0.00 | 53 | 1011.0 |
| 20260504005521 | 49 | 312 | 1.0 | 2.0 | 0.00 | 0.00 | 0.00 | 52 | 1010.9 |
| 20260504005021 | 50 | 311 | 0.0 | 2.0 | 0.00 | 0.00 | 0.00 | 51 | 1011.0 |
| 20260504004523 | 51 | 312 | 0.0 | 3.0 | 0.00 | 0.00 | 0.00 | 49 | 1010.9 |
| 20260504004021 | 51 | 311 | 1.0 | 3.0 | 0.00 | 0.00 | 0.00 | 49 | 1010.9 |
| 20260504003520 | 51 | 311 | 0.0 | 3.0 | 0.00 | 0.00 | 0.00 | 48 | 1010.8 |
| 20260504003022 | 52 | 311 | 0.0 | 3.0 | 0.00 | 0.00 | 0.00 | 46 | 1010.7 |
| 20260504002519 | 52 | 311 | 1.0 | 5.0 | 0.00 | 0.00 | 0.00 | 45 | 1010.7 |
| 20260504002019 | 53 | 311 | 2.0 | 5.0 | 0.00 | 0.00 | 0.00 | 45 | 1010.6 |
| 20260504001519 | 53 | 317 | 1.0 | 2.0 | 0.00 | 0.00 | 0.00 | 44 | 1010.5 |